Погода в Великих Копанях

Украина / Херсонская область     46°29′20″N   32°58′28″E
темп.,
°C
ветер,
м/с
пор.,
м/с
влажн.,
%
обл.,
%
осадки,
мм/ч
давл.,
гПа
погр.,
м
1 марта, пн
пн123:00+2зсз3477100 0.0 1024147
02:00+1зсз348499 0.0 102486
05:000з238991 0.0 102327
08:00+1с348593 0.0 1025218
11:00+5ссв336621 0.0 1026845
14:00+6ссв335851 0.1 10271059
17:00+5ссв4566100 0.1 1028875
20:00+4ссв467499 0.2 1029448
2 марта, вт
вт223:00+1ссв237867 0.0 103163
02:00+1с237671 0.0 103133
05:00+1с238676 0.0 103098
08:00+1сз247656 0.0 1031201
11:00+5з56581 0.0 1029921
14:00+6з785636 0.0 1027809
17:00+5зюз7116599 0.0 1024664
20:00+4зюз7137755 0.0 1024383
3 марта, ср
ср323:00+4з7137859 0.0 1022304
02:00+3сз5128539 0.0 1022363
05:00+4ссз7117593 0.0 1023750
08:00+3ссз7117563 0.0 1026803
11:00+6с68571 0.0 1027948
14:00+9ссз56431 0.0 10271315
17:00+8ссз35470 0.0 1026360
20:00+5сз23600 0.0 102828
4 марта, чт
чт423:00+3зсз22670 0.0 102722
02:00+2зюз22720 0.0 102722
05:00+1юз33730 0.0 102526
08:00+4юз47761 0.0 1025271
11:00+8юз78540 0.0 10231074
14:00+9юз89550 0.0 1020988
17:00+7юз811670 0.0 1018719
20:00+5ююз6137717 0.0 1018528
5 марта, пт
пт523:00+4ююз714810 0.0 1017493
02:00+4ююз613860 0.0 1016430
05:00+4ююз513900 0.0 1014362
08:00+6ююз7128412 0.0 1014521
11:00+10ююз811707 0.0 1013702
14:00+11ююз911684 0.0 1012717
17:00+9ююз8127735 0.0 1011572
20:00+7ююз7128664 0.0 1011371